Tracking 31027 objects as of 19-Jul-2025
HD Live streaming from Space Station
objects crossing your sky now

ORBCOMM FM 27

Track ORBCOMM FM 27 now!
10-day predictions
ORBCOMM FM 27 is classified as:


NORAD ID: 25481
Int'l Code: 1998-053G
Perigee: 770.2 km
Apogee: 773.2 km
Inclination: 45.0 °
Period: 100.1 minutes
Semi major axis: 7142 km
RCS: 0.6177 m2 (medium)
Launch date: September 23, 1998
Source: ORBCOMM (ORB)
Launch site: Pegasus launched from Eastern Range Air Space (ERAS)
Your satellite tracking list
DEWASAT-2
Track 1 satellite(s)




NASA's NSSDC Master Catalog

Two Line Element Set (TLE):
1 25481U 98053G   25199.80374231  .00000749  00000-0  29098-3 0  9990
2 25481  45.0052 117.6479 0002112 355.0241   5.0586 14.38155421402261
Source of the keplerian elements: AFSPC